User: anonymous   Login
Location: Ch�teau-Arnoux
(44.0814°N, 6.0027°E)
Time: 22:31:18
(UTC+00:00)
Language:

Lacrosse 5 - Orbit

View from above orbital plane
View from above orbital plane
View from above satellite
View from above satellite

Ground track
Ground track

The orbit data is extracted from the following two-line orbital elements,

1 28646U 05016A   20010.71568458 0.00000000  00000-0  00000-0 0    08
2 28646  57.0094 228.2270 0003362 128.5123 231.4876 14.51893511    01
Epoch (UTC): 10 January 2020 17:10:35
Eccentricity: 0.0003362
inclination: 57.0094°
perigee height: 717 km
apogee height: 722 km
right ascension of ascending node: 228.2270°
argument of perigee: 128.5123°
revolutions per day: 14.51893511
mean anomaly at epoch: 231.4876°
orbit number at epoch: 0

The dashed part of the orbit path shows where the satellite is in the earth's shadow,  

DLR